| time (UTC) | temp C | wind direction | speed KPH | gust KPH | rain 1hr cm | rain 24hr cm | rain mn cm | humidity % | barometer mb |
| 20260504180219 | 24 | 258 | 1.6 | 1.6 | 0.00 | 0.00 | 0.00 | 44 | 1017.6 |
| 20260504175716 | 24 | 260 | 1.6 | 1.6 | 0.00 | 0.00 | 0.00 | 44 | 1017.4 |
| 20260504175212 | 23 | 257 | 1.6 | 1.6 | 0.00 | 0.00 | 0.00 | 45 | 1017.7 |
| 20260504174711 | 25 | 263 | 1.6 | 1.6 | 0.00 | 0.00 | 0.00 | 44 | 1017.8 |
| 20260504174208 | 23 | 336 | 4.8 | 4.8 | 0.00 | 0.00 | 0.00 | 42 | 1017.6 |
| 20260504173704 | 23 | 261 | 1.6 | 1.6 | 0.00 | 0.00 | 0.00 | 44 | 1017.7 |
| 20260504173202 | 23 | 236 | 1.6 | 1.6 | 0.00 | 0.00 | 0.00 | 46 | 1017.6 |
| 20260504172658 | 23 | 254 | 1.6 | 1.6 | 0.00 | 0.00 | 0.00 | 43 | 1018.1 |
| 20260504172155 | 24 | 320 | 8.0 | 11.3 | 0.00 | 0.00 | 0.00 | 41 | 1018.1 |
| 20260504171651 | 23 | 248 | 1.6 | 1.6 | 0.00 | 0.00 | 0.00 | 45 | 1017.9 |
| 20260504171148 | 24 | 300 | 1.6 | 1.6 | 0.00 | 0.00 | 0.00 | 44 | 1018.3 |
| 20260504170645 | 23 | 250 | 1.6 | 1.6 | 0.00 | 0.00 | 0.00 | 47 | 1018.1 |
| 20260504170142 | 23 | 253 | 1.6 | 1.6 | 0.00 | 0.00 | 0.00 | 47 | 1018.1 |
| 20260504151022 | 21 | 251 | 0.0 | 0.0 | 0.00 | 0.00 | 0.00 | 48 | 1019.3 |
| 20260504150519 | 21 | 252 | 1.6 | 1.6 | 0.00 | 0.00 | 0.00 | 51 | 1019.1 |
| 20260504140945 | 20 | 255 | 4.8 | 4.8 | 0.00 | 0.00 | 0.00 | 54 | 1019.7 |
| 20260504140442 | 19 | 247 | 1.6 | 1.6 | 0.00 | 0.00 | 0.00 | 56 | 1019.7 |
| 20260504130406 | 15 | 258 | 1.6 | 1.6 | 0.00 | 0.00 | 0.00 | 81 | 1019.7 |
| 20260504110254 | 5 | 258 | 0.0 | 0.0 | 0.00 | 0.00 | 0.00 | 99 | 1019.0 |
| 20260504100217 | 5 | 256 | 0.0 | 0.0 | 0.00 | 0.00 | 0.00 | 99 | 1018.7 |
| 20260504090139 | 6 | 253 | 0.0 | 0.0 | 0.00 | 0.00 | 0.00 | 99 | 1018.9 |
| 20260504081610 | 6 | 256 | 0.0 | 0.0 | 0.00 | 0.00 | 0.00 | 99 | 1018.8 |
| 20260504081105 | 6 | 256 | 0.0 | 0.0 | 0.00 | 0.00 | 0.00 | 99 | 1018.8 |
| 20260504080603 | 6 | 251 | 0.0 | 0.0 | 0.00 | 0.00 | 0.00 | 99 | 1018.8 |
| 20260504050415 | 8 | 255 | 0.0 | 0.0 | 0.00 | 0.00 | 0.00 | 94 | 1019.7 |
| 20260504045912 | 8 | 255 | 0.0 | 0.0 | 0.00 | 0.00 | 0.00 | 93 | 1019.8 |
| 20260504045408 | 8 | 254 | 0.0 | 0.0 | 0.00 | 0.00 | 0.00 | 93 | 1019.9 |
| 20260504044904 | 8 | 253 | 0.0 | 0.0 | 0.00 | 0.00 | 0.00 | 92 | 1019.8 |
| 20260504044402 | 8 | 253 | 0.0 | 0.0 | 0.00 | 0.00 | 0.00 | 92 | 1019.9 |
| 20260504043859 | 8 | 253 | 0.0 | 0.0 | 0.00 | 0.00 | 0.00 | 92 | 1019.9 |
| 20260504043356 | 8 | 249 | 0.0 | 0.0 | 0.00 | 0.00 | 0.00 | 91 | 1020.0 |
| 20260504042853 | 8 | 249 | 0.0 | 0.0 | 0.00 | 0.00 | 0.00 | 91 | 1019.8 |
| 20260504042349 | 8 | 250 | 0.0 | 0.0 | 0.00 | 0.00 | 0.00 | 90 | 1019.9 |
| 20260504041846 | 8 | 250 | 0.0 | 0.0 | 0.00 | 0.00 | 0.00 | 90 | 1020.2 |
| 20260504041342 | 8 | 249 | 0.0 | 0.0 | 0.00 | 0.00 | 0.00 | 90 | 1020.2 |
| 20260504040838 | 8 | 249 | 0.0 | 0.0 | 0.00 | 0.00 | 0.00 | 90 | 1020.1 |
| 20260504040336 | 8 | 250 | 0.0 | 0.0 | 0.00 | 0.00 | 0.00 | 89 | 1019.8 |
| 20260504035832 | 9 | 250 | 0.0 | 0.0 | 0.00 | 0.00 | 0.00 | 89 | 1020.0 |
| 20260504035330 | 9 | 250 | 0.0 | 0.0 | 0.00 | 0.00 | 0.00 | 88 | 1019.8 |
| 20260504034827 | 9 | 250 | 0.0 | 0.0 | 0.00 | 0.00 | 0.00 | 87 | 1020.0 |
| 20260504034324 | 10 | 250 | 0.0 | 0.0 | 0.00 | 0.00 | 0.00 | 86 | 1020.0 |
| 20260504033821 | 10 | 249 | 0.0 | 0.0 | 0.00 | 0.00 | 0.00 | 85 | 1019.9 |
| 20260504033319 | 10 | 249 | 0.0 | 0.0 | 0.00 | 0.00 | 0.00 | 84 | 1019.9 |
| 20260504032815 | 10 | 249 | 0.0 | 0.0 | 0.00 | 0.00 | 0.00 | 84 | 1020.1 |
| 20260504032313 | 10 | 249 | 0.0 | 0.0 | 0.00 | 0.00 | 0.00 | 83 | 1019.8 |
| 20260504031809 | 10 | 249 | 0.0 | 0.0 | 0.00 | 0.00 | 0.00 | 82 | 1019.9 |
| 20260504031307 | 10 | 250 | 0.0 | 0.0 | 0.00 | 0.00 | 0.00 | 82 | 1019.9 |
| 20260504030802 | 10 | 250 | 0.0 | 0.0 | 0.00 | 0.00 | 0.00 | 81 | 1019.9 |
| 20260504030300 | 10 | 250 | 0.0 | 0.0 | 0.00 | 0.00 | 0.00 | 80 | 1019.9 |
| 20260504025756 | 10 | 251 | 0.0 | 0.0 | 0.00 | 0.00 | 0.00 | 80 | 1020.2 |
| 20260504025253 | 11 | 250 | 0.0 | 0.0 | 0.00 | 0.00 | 0.00 | 78 | 1020.1 |
| 20260504024749 | 11 | 251 | 0.0 | 0.0 | 0.00 | 0.00 | 0.00 | 78 | 1019.9 |
| 20260504024246 | 11 | 251 | 0.0 | 0.0 | 0.00 | 0.00 | 0.00 | 77 | 1020.0 |
| 20260504023743 | 11 | 250 | 0.0 | 0.0 | 0.00 | 0.00 | 0.00 | 76 | 1019.8 |
| 20260504023239 | 11 | 249 | 0.0 | 0.0 | 0.00 | 0.00 | 0.00 | 76 | 1019.7 |
| 20260504022735 | 11 | 249 | 0.0 | 0.0 | 0.00 | 0.00 | 0.00 | 75 | 1019.6 |
| 20260504022232 | 11 | 252 | 0.0 | 0.0 | 0.00 | 0.00 | 0.00 | 74 | 1019.7 |
| 20260504021729 | 11 | 253 | 0.0 | 0.0 | 0.00 | 0.00 | 0.00 | 74 | 1019.5 |
| 20260504021226 | 11 | 254 | 0.0 | 0.0 | 0.00 | 0.00 | 0.00 | 72 | 1019.7 |
| 20260504020723 | 12 | 255 | 0.0 | 0.0 | 0.00 | 0.00 | 0.00 | 72 | 1019.6 |
| 20260504020220 | 12 | 251 | 0.0 | 0.0 | 0.00 | 0.00 | 0.00 | 71 | 1019.6 |
| 20260504015716 | 12 | 251 | 0.0 | 0.0 | 0.00 | 0.00 | 0.00 | 70 | 1019.2 |
| 20260504015212 | 12 | 249 | 0.0 | 0.0 | 0.00 | 0.00 | 0.00 | 69 | 1019.1 |
| 20260504014708 | 12 | 255 | 0.0 | 0.0 | 0.00 | 0.00 | 0.00 | 68 | 1019.3 |
| 20260504014205 | 12 | 257 | 0.0 | 0.0 | 0.00 | 0.00 | 0.00 | 68 | 1019.1 |
| 20260504013703 | 13 | 258 | 0.0 | 0.0 | 0.00 | 0.00 | 0.00 | 67 | 1019.0 |
| 20260504013200 | 13 | 262 | 1.6 | 1.6 | 0.00 | 0.00 | 0.00 | 67 | 1018.9 |
| 20260504012656 | 13 | 256 | 0.0 | 0.0 | 0.00 | 0.00 | 0.00 | 66 | 1018.8 |
| 20260504012155 | 13 | 260 | 0.0 | 1.6 | 0.00 | 0.00 | 0.00 | 64 | 1019.1 |
| 20260504011651 | 13 | 257 | 0.0 | 0.0 | 0.00 | 0.00 | 0.00 | 65 | 1018.6 |
| 20260504011148 | 13 | 252 | 0.0 | 0.0 | 0.00 | 0.00 | 0.00 | 62 | 1018.7 |
| 20260504010644 | 13 | 255 | 0.0 | 0.0 | 0.00 | 0.00 | 0.00 | 62 | 1018.8 |
| 20260504010139 | 14 | 255 | 0.0 | 0.0 | 0.00 | 0.00 | 0.00 | 61 | 1018.6 |
| 20260504005637 | 14 | 253 | 0.0 | 0.0 | 0.00 | 0.00 | 0.00 | 60 | 1018.8 |
| 20260504005133 | 15 | 256 | 0.0 | 0.0 | 0.00 | 0.00 | 0.00 | 59 | 1018.6 |
| 20260504004632 | 15 | 257 | 0.0 | 0.0 | 0.00 | 0.00 | 0.00 | 57 | 1018.7 |
| 20260504004128 | 15 | 257 | 0.0 | 0.0 | 0.00 | 0.00 | 0.00 | 56 | 1018.6 |
| 20260504003625 | 15 | 254 | 0.0 | 0.0 | 0.00 | 0.00 | 0.00 | 54 | 1018.7 |
| 20260504003121 | 15 | 252 | 0.0 | 0.0 | 0.00 | 0.00 | 0.00 | 54 | 1018.4 |
| 20260504002618 | 16 | 251 | 0.0 | 0.0 | 0.00 | 0.00 | 0.00 | 52 | 1018.5 |
| 20260504002116 | 16 | 249 | 0.0 | 0.0 | 0.00 | 0.00 | 0.00 | 51 | 1018.7 |
| 20260504001614 | 16 | 250 | 0.0 | 0.0 | 0.00 | 0.00 | 0.00 | 51 | 1018.5 |
| 20260504001109 | 17 | 251 | 0.0 | 1.6 | 0.00 | 0.00 | 0.00 | 51 | 1018.4 |
| 20260504000607 | 17 | 252 | 0.0 | 0.0 | 0.00 | 0.00 | 0.00 | 50 | 1018.5 |
| 20260504000104 | 17 | 254 | 0.0 | 0.0 | 0.00 | 0.00 | 0.00 | 48 | 1018.4 |
| 20260503235602 | 17 | 253 | 0.0 | 0.0 | 0.00 | 0.00 | 0.00 | 47 | 1018.7 |
| 20260503235059 | 17 | 257 | 0.0 | 0.0 | 0.00 | 0.00 | 0.00 | 47 | 1018.4 |
| 20260503234556 | 17 | 261 | 3.2 | 4.8 | 0.00 | 0.00 | 0.00 | 47 | 1018.4 |
| 20260503234054 | 18 | 257 | 0.0 | 0.0 | 0.00 | 0.00 | 0.00 | 49 | 1018.4 |
| 20260503233550 | 18 | 257 | 0.0 | 0.0 | 0.00 | 0.00 | 0.00 | 46 | 1018.3 |
| 20260503233046 | 18 | 255 | 0.0 | 0.0 | 0.00 | 0.00 | 0.00 | 44 | 1018.4 |
| 20260503232544 | 18 | 262 | 1.6 | 3.2 | 0.00 | 0.00 | 0.00 | 45 | 1018.4 |
| 20260503232041 | 18 | 259 | 0.0 | 0.0 | 0.00 | 0.00 | 0.00 | 45 | 1018.3 |
| 20260503231539 | 18 | 248 | 4.8 | 4.8 | 0.00 | 0.00 | 0.00 | 42 | 1018.4 |
| 20260503231035 | 18 | 251 | 0.0 | 0.0 | 0.00 | 0.00 | 0.00 | 43 | 1018.5 |
| 20260503230532 | 18 | 251 | 0.0 | 0.0 | 0.00 | 0.00 | 0.00 | 44 | 1018.4 |
| 20260503230030 | 19 | 243 | 1.6 | 1.6 | 0.00 | 0.00 | 0.00 | 45 | 1018.4 |
| 20260503225527 | 19 | 247 | 3.2 | 3.2 | 0.00 | 0.00 | 0.00 | 43 | 1018.3 |
| 20260503225027 | 20 | 253 | 1.6 | 3.2 | 0.00 | 0.00 | 0.00 | 43 | 1018.4 |
| 20260503224525 | 20 | 273 | 4.8 | 4.8 | 0.00 | 0.00 | 0.00 | 39 | 1018.4 |
| 20260503224022 | 21 | 258 | 0.0 | 0.0 | 0.00 | 0.00 | 0.00 | 42 | 1018.1 |
| 20260503223520 | 20 | 263 | 0.0 | 1.6 | 0.00 | 0.00 | 0.00 | 44 | 1018.3 |
| 20260503223015 | 20 | 318 | 1.6 | 3.2 | 0.00 | 0.00 | 0.00 | 42 | 1018.4 |
| 20260503222514 | 21 | 251 | 0.0 | 0.0 | 0.00 | 0.00 | 0.00 | 43 | 1018.2 |
| 20260503222012 | 21 | 250 | 3.2 | 3.2 | 0.00 | 0.00 | 0.00 | 40 | 1018.4 |
| 20260503221510 | 21 | 282 | 1.6 | 3.2 | 0.00 | 0.00 | 0.00 | 40 | 1018.3 |
| 20260503221007 | 21 | 262 | 0.0 | 1.6 | 0.00 | 0.00 | 0.00 | 38 | 1018.5 |
| 20260503220503 | 22 | 261 | 0.0 | 1.6 | 0.00 | 0.00 | 0.00 | 41 | 1018.2 |
| 20260503220000 | 22 | 282 | 3.2 | 3.2 | 0.00 | 0.00 | 0.00 | 39 | 1018.2 |
| 20260503215457 | 22 | 247 | 0.0 | 0.0 | 0.00 | 0.00 | 0.00 | 40 | 1018.6 |
| 20260503214954 | 22 | 257 | 0.0 | 0.0 | 0.00 | 0.00 | 0.00 | 42 | 1018.2 |
| 20260503214452 | 21 | 245 | 1.6 | 1.6 | 0.00 | 0.00 | 0.00 | 42 | 1018.6 |
| 20260503213949 | 22 | 246 | 0.0 | 0.0 | 0.00 | 0.00 | 0.00 | 41 | 1018.6 |
| 20260503213447 | 21 | 262 | 1.6 | 1.6 | 0.00 | 0.00 | 0.00 | 40 | 1018.6 |
| 20260503212943 | 21 | 257 | 1.6 | 1.6 | 0.00 | 0.00 | 0.00 | 42 | 1018.6 |
| 20260503212441 | 21 | 254 | 0.0 | 0.0 | 0.00 | 0.00 | 0.00 | 40 | 1018.6 |
| 20260503211938 | 20 | 83 | 9.7 | 11.3 | 0.00 | 0.00 | 0.00 | 38 | 1018.5 |
| 20260503211435 | 21 | 278 | 1.6 | 1.6 | 0.00 | 0.00 | 0.00 | 40 | 1018.7 |
| 20260503210930 | 21 | 173 | 4.8 | 8.0 | 0.00 | 0.00 | 0.00 | 36 | 1018.6 |
| 20260503210427 | 20 | 2 | 4.8 | 4.8 | 0.00 | 0.00 | 0.00 | 39 | 1018.9 |
| 20260503205922 | 22 | 47 | 9.7 | 12.9 | 0.00 | 0.00 | 0.00 | 37 | 1019.0 |
| 20260503205420 | 21 | 255 | 1.6 | 1.6 | 0.00 | 0.00 | 0.00 | 37 | 1018.7 |
| 20260503204916 | 21 | 264 | 0.0 | 1.6 | 0.00 | 0.00 | 0.00 | 39 | 1018.9 |
| 20260503204413 | 21 | 262 | 1.6 | 3.2 | 0.00 | 0.00 | 0.00 | 40 | 1018.8 |
| 20260503203910 | 20 | 258 | 0.0 | 0.0 | 0.00 | 0.00 | 0.00 | 40 | 1018.9 |
| 20260503203408 | 21 | 43 | 6.4 | 11.3 | 0.00 | 0.00 | 0.00 | 39 | 1019.1 |
| 20260503202904 | 21 | 270 | 0.0 | 1.6 | 0.00 | 0.00 | 0.00 | 41 | 1019.0 |
| 20260503202403 | 21 | 255 | 6.4 | 8.0 | 0.00 | 0.00 | 0.00 | 34 | 1019.4 |
| 20260503201901 | 20 | 266 | 3.2 | 3.2 | 0.00 | 0.00 | 0.00 | 39 | 1019.3 |
| 20260503201357 | 20 | 35 | 9.7 | 12.9 | 0.00 | 0.00 | 0.00 | 38 | 1019.5 |
| 20260503200855 | 21 | 224 | 4.8 | 8.0 | 0.00 | 0.00 | 0.00 | 39 | 1019.5 |
| 20260503200350 | 20 | 259 | 1.6 | 1.6 | 0.00 | 0.00 | 0.00 | 42 | 1019.4 |
| 20260503195848 | 21 | 29 | 8.0 | 11.3 | 0.00 | 0.00 | 0.00 | 41 | 1019.4 |
| 20260503195344 | 20 | 313 | 1.6 | 1.6 | 0.00 | 0.00 | 0.00 | 45 | 1019.5 |
| 20260503194842 | 21 | 280 | 3.2 | 3.2 | 0.00 | 0.00 | 0.00 | 40 | 1019.7 |
| 20260503194337 | 21 | 258 | 0.0 | 0.0 | 0.00 | 0.00 | 0.00 | 46 | 1019.8 |
| 20260503193834 | 20 | 226 | 0.0 | 0.0 | 0.00 | 0.00 | 0.00 | 44 | 1019.7 |
| 20260503193330 | 20 | 294 | 4.8 | 4.8 | 0.00 | 0.00 | 0.00 | 41 | 1019.9 |
| 20260503192826 | 20 | 272 | 4.8 | 4.8 | 0.00 | 0.00 | 0.00 | 42 | 1020.0 |
| 20260503192321 | 20 | 242 | 1.6 | 1.6 | 0.00 | 0.00 | 0.00 | 43 | 1020.2 |
| 20260503191818 | 20 | 286 | 1.6 | 1.6 | 0.00 | 0.00 | 0.00 | 46 | 1020.2 |
| 20260503191315 | 20 | 284 | 1.6 | 1.6 | 0.00 | 0.00 | 0.00 | 47 | 1020.4 |
| 20260503190812 | 20 | 29 | 4.8 | 8.0 | 0.00 | 0.00 | 0.00 | 42 | 1020.4 |
| 20260503190309 | 20 | 29 | 4.8 | 8.0 | 0.00 | 0.00 | 0.00 | 46 | 1020.5 |
| 20260503185806 | 20 | 13 | 1.6 | 3.2 | 0.00 | 0.00 | 0.00 | 46 | 1020.5 |
| 20260503185302 | 20 | 272 | 4.8 | 4.8 | 0.00 | 0.00 | 0.00 | 44 | 1020.5 |
| 20260503184801 | 20 | 15 | 6.4 | 8.0 | 0.00 | 0.00 | 0.00 | 44 | 1020.6 |
| 20260503184258 | 20 | 37 | 6.4 | 9.7 | 0.00 | 0.00 | 0.00 | 44 | 1020.7 |
| 20260503183754 | 20 | 267 | 0.0 | 1.6 | 0.00 | 0.00 | 0.00 | 46 | 1020.8 |
| 20260503183252 | 20 | 154 | 3.2 | 3.2 | 0.00 | 0.00 | 0.00 | 43 | 1020.6 |
| 20260503182749 | 20 | 54 | 8.0 | 12.9 | 0.00 | 0.00 | 0.00 | 42 | 1020.7 |
| 20260503182248 | 19 | 224 | 1.6 | 1.6 | 0.00 | 0.00 | 0.00 | 47 | 1021.0 |
| 20260503181744 | 19 | 236 | 1.6 | 1.6 | 0.00 | 0.00 | 0.00 | 43 | 1021.0 |
| 20260503181242 | 19 | 264 | 1.6 | 3.2 | 0.00 | 0.00 | 0.00 | 46 | 1021.2 |
| 20260503180738 | 20 | 222 | 1.6 | 3.2 | 0.00 | 0.00 | 0.00 | 43 | 1021.3 |